Location: Unspecified
(17.6330°N, 0.0000°E)
Time: 10:23:03
(UTC+00:00)

S-56A Canister/Altair - Pass Details

Date: 29 June 2019
Orbit: 633 x 2499 km, 38.9° (Epoch: 15 October)

Event Time Altitude Azimuth Distance (km) Brightness Sun altitude
Rises 15:51:29 0° 295° (WNW) 5,452 12.8 36.6°
Reaches altitude 10° 15:57:10 10° 313° (NW) 4,058 12.3 35.3°
Maximum altitude 16:03:24 17° 350° (N) 3,016 11.1 33.9°
Drops below altitude 10° 16:08:24 10° 30° (NNE) 3,130 10.6 32.8°
Sets 16:11:58 0° 50° (NE) 3,781 10.8 31.9°
